Quantico, VA

11:53 AM EST on December 13, 2017 (GMT -0500)
Quantico Marine Corps Air Facility

Weather History for KNYG - November, 2013

Change the Weather History Date:

Thursday, November 21, 2013

  Actual Average Record
Temperature  
Mean Temperature 42 °F -  
Max Temperature 50 °F 53 °F 73 °F (2003)
Min Temperature 33 °F 36 °F 24 °F (2014)
Degree Days  
Heating Degree Days 24    
Moisture  
Dew Point 35 °F    
Average Humidity 74    
Maximum Humidity 85    
Minimum Humidity 59    
Precipitation  
Precipitation 0.00 in - - ()
Sea Level Pressure  
Sea Level Pressure 30.51 in    
Wind  
Wind Speed 5 mph (North)    
Max Wind Speed 8 mph    
Max Gust Speed -    
Visibility 10 miles    
Events      
Averages and records for this station are not official NWS values.
T = Trace of Precipitation, MM = Missing Value Source: NWS Daily Summary

Daily Weather History Graph

Daily Weather History Graph

Search for Another Location

Airport or City:

Trip Planner

Search our weather history database for the weather conditions in past years. The results will help you decide how hot, cold, wet, or windy it might be!

Date:

Astronomy

Nov. 21, 2013 Rise Set
Actual Time 6:57 AM EST 4:52 PM EST
Civil Twilight 6:29 AM EST 5:21 PM EST
Nautical Twilight 5:56 AM EST 5:53 PM EST
Astronomical Twilight 5:25 AM EST 6:24 PM EST
Moon 8:26 PM EST (11/21) 10:03 AM EST (11/21)
Length of Visible Light 10h 51m
Length of Day
9h 54m
Waning Gibbous, 85% of the Moon is Illuminated
Nov 21
Waning Gibbous
Nov 25
Last Quarter
Dec 2
New
Dec 9
First Quarter
Dec 17
Full

Hourly Weather History & Observations

Time (EST) Temp. Windchill Dew Point Humidity Pressure Visibility Wind Dir Wind Speed Gust Speed Precip Events Conditions
12:56 AM 33.1 °F 26.1 °F 28.9 °F 85% 30.58 in 10.0 mi NW 8.1 mph - N/A   Partly Cloudy
1:56 AM 33.1 °F 27.7 °F 28.0 °F 82% 30.58 in 10.0 mi NNW 5.8 mph - N/A   Clear
2:56 AM 33.1 °F 26.1 °F 28.9 °F 85% 30.57 in 10.0 mi NW 8.1 mph - N/A   Mostly Cloudy
3:56 AM 34.0 °F 28.8 °F 28.9 °F 82% 30.56 in 10.0 mi NNW 5.8 mph - N/A   Mostly Cloudy
4:56 AM 34.0 °F 29.8 °F 30.0 °F 85% 30.56 in 10.0 mi North 4.6 mph - N/A   Mostly Cloudy
5:56 AM 37.9 °F 34.4 °F 30.9 °F 76% 30.57 in 10.0 mi North 4.6 mph - N/A   Overcast
6:56 AM 39.0 °F 35.7 °F 30.9 °F 73% 30.57 in 10.0 mi North 4.6 mph - N/A   Mostly Cloudy
7:56 AM 39.9 °F 36.7 °F 32.0 °F 73% 30.58 in 10.0 mi NW 4.6 mph - N/A   Mostly Cloudy
8:56 AM 42.1 °F 40.2 °F 32.0 °F 67% 30.58 in 10.0 mi NE 3.5 mph - N/A   Mostly Cloudy
9:56 AM 43.0 °F - 32.0 °F 65% 30.58 in 10.0 mi Calm Calm - N/A   Mostly Cloudy
10:56 AM 45.0 °F 41.8 °F 34.0 °F 65% 30.56 in 10.0 mi East 5.8 mph - N/A   Mostly Cloudy
11:56 AM 46.0 °F 42.5 °F 35.1 °F 66% 30.54 in 10.0 mi East 6.9 mph - N/A   Mostly Cloudy
12:56 PM 48.0 °F - 36.0 °F 63% 30.50 in 10.0 mi East 5.8 mph - N/A   Mostly Cloudy
1:56 PM 48.0 °F - 37.0 °F 66% 30.49 in 10.0 mi East 6.9 mph - N/A   Mostly Cloudy
2:56 PM 48.9 °F - 37.9 °F 66% 30.47 in 10.0 mi ENE 4.6 mph - N/A   Mostly Cloudy
3:56 PM 50.0 °F - 36.0 °F 59% 30.46 in 10.0 mi Calm Calm - N/A   Mostly Cloudy
4:56 PM 48.0 °F - 39.9 °F 74% 30.45 in 10.0 mi Calm Calm - N/A   Scattered Clouds
5:56 PM 48.0 °F - 39.0 °F 71% 30.47 in 10.0 mi NW 3.5 mph - N/A   Overcast
6:56 PM 48.0 °F - 37.9 °F 68% 30.47 in 10.0 mi Calm Calm - N/A   Overcast
7:56 PM 48.0 °F - 41.0 °F 77% 30.45 in 10.0 mi Calm Calm - N/A   Mostly Cloudy
8:56 PM 44.1 °F 41.5 °F 39.0 °F 82% 30.44 in 10.0 mi WNW 4.6 mph - N/A   Partly Cloudy
9:56 PM 45.0 °F 42.6 °F 39.0 °F 80% 30.44 in 10.0 mi WNW 4.6 mph - N/A   Overcast
10:56 PM 43.0 °F - 37.9 °F 82% 30.43 in 10.0 mi Calm Calm - N/A   Partly Cloudy
11:56 PM 42.1 °F 39.2 °F 37.9 °F 85% 30.43 in 10.0 mi NW 4.6 mph - N/A   Mostly Cloudy